Saint John's, Antigua

7:32 PM AST on January 18, 2017 (GMT -0400)
V C Bird International

Weather History for TAPA - June, 2013

Change the Weather History Date:

Thursday, June 27, 2013

  Actual Average Record
Temperature  
Mean Temperature 81 °F -  
Max Temperature 85 °F 85 °F 87 °F (1997)
Min Temperature 77 °F 76 °F 75 °F (2014)
Cooling Degree Days 16    
Growing Degree Days 31 (Base 50)    
Moisture  
Dew Point 73 °F    
Average Humidity 72    
Maximum Humidity 79    
Minimum Humidity 60    
Precipitation  
Precipitation 0.00 in - - ()
Sea Level Pressure  
Sea Level Pressure 30.03 in    
Wind  
Wind Speed 9 mph ()    
Max Wind Speed 14 mph    
Max Gust Speed -    
Visibility 8.3 miles    
Events      
Averages and records for this station are not official NWS values.
T = Trace of Precipitation, MM = Missing Value Source: Averaged Metar Reports

Daily Weather History Graph

Daily Weather History Graph

Search for Another Location

Airport or City:

Trip Planner

Search our weather history database for the weather conditions in past years. The results will help you decide how hot, cold, wet, or windy it might be!

Date:

Astronomy

Jun. 27, 2013 Rise Set
Actual Time 5:35 AM AST 6:44 PM AST
Civil Twilight 5:11 AM AST 7:08 PM AST
Nautical Twilight 4:43 AM AST 7:37 PM AST
Astronomical Twilight 4:14 AM AST 8:06 PM AST
Moon 10:27 PM AST (6/27) 9:49 AM AST (6/27)
Length of Visible Light 13h 56m
Length of Day
13h 08m
Waning Gibbous, 76% of the Moon is Illuminated
Jun 27
Waning Gibbous
Jun 30
Last Quarter
Jul 8
New
Jul 15
First Quarter
Jul 22
Full

Hourly Weather History & Observations

Time (AST) Temp. Heat Index Dew Point Humidity Pressure Visibility Wind Dir Wind Speed Gust Speed Precip Events Conditions
12:00 AM 80.6 °F 85.4 °F 73.4 °F 79% 30.04 in 6.2 mi East 9.2 mph - N/A   Scattered Clouds
1:00 AM 80.6 °F 85.4 °F 73.4 °F 79% 30.04 in 6.2 mi East 10.4 mph - N/A   Partly Cloudy
2:00 AM 80 °F - 73 °F 74% 30.01 in 14 mi ESE 9.2 mph - -   Widespread Dust
2:00 AM 80.6 °F 85.4 °F 73.4 °F 79% 30.01 in 6.2 mi ESE 9.2 mph - N/A   Scattered Clouds
3:00 AM 80.6 °F 85.4 °F 73.4 °F 79% 30.01 in 6.2 mi ESE 9.2 mph - N/A   Scattered Clouds
4:00 AM 80.6 °F 85.4 °F 73.4 °F 79% 30.01 in 6.2 mi East 8.1 mph - N/A   Mostly Cloudy
5:00 AM 80.6 °F 85.4 °F 73.4 °F 79% 30.01 in 6.2 mi East 10.4 mph - N/A   Mostly Cloudy
6:00 AM 80.6 °F 85.4 °F 73.4 °F 79% 30.01 in 6.2 mi East 10.4 mph - N/A   Mostly Cloudy
7:00 AM 80.6 °F 85.4 °F 73.4 °F 79% 30.01 in 6.2 mi East 9.2 mph - N/A   Scattered Clouds
8:00 AM 82 °F - 74 °F 69% 30.04 in 15 mi East 4.6 mph - -   Widespread Dust
8:00 AM 82.4 °F 88.2 °F 73.4 °F 74% 30.04 in 6.2 mi East 4.6 mph - N/A   Scattered Clouds
9:00 AM 84.2 °F 90.9 °F 73.4 °F 70% 30.04 in 6.2 mi East 11.5 mph - N/A   Mostly Cloudy
10:00 AM 84.2 °F 90.9 °F 73.4 °F 70% 30.04 in 6.2 mi East 12.7 mph - N/A   Scattered Clouds
11:00 AM 84 °F - 73 °F 62% 30.04 in 16 mi East 13.8 mph - -   Widespread Dust
11:00 AM 84.2 °F 90.9 °F 73.4 °F 70% 30.04 in 6.2 mi East 13.8 mph - N/A   Scattered Clouds
12:00 PM 84.2 °F 90.9 °F 73.4 °F 70% 30.04 in 6.2 mi East 13.8 mph - N/A   Scattered Clouds
1:00 PM 84.2 °F 90.9 °F 73.4 °F 70% 30.04 in 6.2 mi ESE 12.7 mph - N/A   Scattered Clouds
2:00 PM 84 °F - 72 °F 60% 30.04 in 16 mi East 12.7 mph - -   Widespread Dust
2:00 PM 84.2 °F 89.6 °F 71.6 °F 66% 30.04 in 6.2 mi East 12.7 mph - N/A   Scattered Clouds
3:00 PM 84.2 °F 90.9 °F 73.4 °F 70% 30.01 in 6.2 mi East 11.5 mph - N/A   Scattered Clouds
4:00 PM 84.2 °F 90.9 °F 73.4 °F 70% 30.01 in 6.2 mi East 10.4 mph - N/A   Scattered Clouds
5:00 PM 83 °F - 73 °F 64% 30.03 in 16 mi East 10.4 mph - -   Widespread Dust
5:00 PM 82.4 °F 88.2 °F 73.4 °F 74% 30.01 in 6.2 mi East 10.4 mph - N/A   Partly Cloudy
6:00 PM 82.4 °F 87.2 °F 71.6 °F 70% 30.01 in 6.2 mi East 10.4 mph - N/A   Partly Cloudy
7:00 PM 80.6 °F 84.6 °F 71.6 °F 74% 30.04 in 6.2 mi East 9.2 mph - N/A   Scattered Clouds
8:00 PM 80 °F - 71 °F 69% 30.06 in 16 mi East 9.2 mph - -   Widespread Dust
8:00 PM 80.6 °F 84.6 °F 71.6 °F 74% 30.04 in 6.2 mi East 9.2 mph - N/A   Partly Cloudy
9:00 PM 80.6 °F 84.6 °F 71.6 °F 74% 30.04 in 6.2 mi East 8.1 mph - N/A   Scattered Clouds
10:00 PM 80.6 °F 84.6 °F 71.6 °F 74% 30.04 in 6.2 mi East 9.2 mph - N/A   Partly Cloudy
11:00 PM 80 °F - 72 °F 69% 30.05 in 16 mi East 10.4 mph - -   Widespread Dust
11:00 PM 80.6 °F 84.6 °F 71.6 °F 74% 30.04 in 6.2 mi East 10.4 mph - N/A   Partly Cloudy